Total_Precipitation_Accumulation
0.76 0.75 0.62 0.56 0.54 0.52 0.48 0.47 0.54 0.61 0.66 0.60 0.60 0.67 0.67 0.70 0.73 0.80 0.92 1.03 0.98 0.94 0.87 0.86 0.95 1.01 1.18 1.24 1.19 1.09 1.04 0.98 0.87 0.81 0.59 0.34 0.24 0.22 0.22 0.15 0.11 0.10 0.07
0.82 0.75 0.65 0.62 0.61 0.65 0.62 0.51 0.51 0.57 0.55 0.55 0.61 0.62 0.60 0.62 0.64 0.73 0.85 0.90 0.91 0.83 0.76 0.72 0.76 0.83 0.97 1.11 1.20 1.11 1.05 0.98 0.96 0.92 0.73 0.50 0.37 0.30 0.24 0.18 0.13 0.11 0.11
0.84 0.82 0.72 0.60 0.61 0.62 0.59 0.51 0.49 0.51 0.50 0.56 0.55 0.59 0.58 0.56 0.61 0.66 0.70 0.71 0.64 0.60 0.60 0.60 0.63 0.68 0.76 0.88 1.01 1.09 1.04 0.97 1.00 1.02 0.86 0.65 0.48 0.36 0.31 0.26 0.19 0.17 0.15
0.90 0.84 0.80 0.73 0.71 0.64 0.52 0.43 0.44 0.44 0.41 0.45 0.50 0.52 0.55 0.53 0.53 0.55 0.56 0.62 0.55 0.47 0.41 0.41 0.45 0.48 0.54 0.66 0.78 0.90 1.00 1.03 1.04 1.06 0.98 0.75 0.56 0.42 0.32 0.30 0.31 0.26 0.24
0.96 0.90 0.83 0.78 0.67 0.56 0.50 0.39 0.35 0.31 0.31 0.35 0.45 0.56 0.61 0.59 0.60 0.59 0.51 0.53 0.54 0.51 0.44 0.38 0.33 0.34 0.39 0.45 0.55 0.74 0.87 0.98 1.05 1.09 1.05 0.90 0.72 0.58 0.44 0.37 0.36 0.40 0.40
0.78 0.79 0.79 0.75 0.60 0.51 0.43 0.34 0.28 0.26 0.26 0.29 0.34 0.44 0.58 0.57 0.67 0.65 0.56 0.51 0.52 0.49 0.46 0.47 0.46 0.41 0.32 0.25 0.25 0.37 0.53 0.71 0.86 0.96 1.00 0.91 0.76 0.66 0.59 0.51 0.43 0.38 0.39
0.60 0.63 0.65 0.60 0.47 0.42 0.33 0.28 0.28 0.26 0.27 0.29 0.34 0.43 0.57 0.70 0.67 0.53 0.57 0.54 0.50 0.48 0.43 0.43 0.46 0.45 0.49 0.42 0.33 0.28 0.29 0.37 0.53 0.68 0.75 0.76 0.81 0.69 0.56 0.45 0.39 0.36 0.35
0.45 0.48 0.47 0.46 0.41 0.34 0.26 0.25 0.26 0.26 0.28 0.30 0.34 0.38 0.43 0.57 0.55 0.46 0.58 0.58 0.58 0.56 0.50 0.48 0.51 0.49 0.48 0.59 0.58 0.50 0.42 0.41 0.51 0.40 0.43 0.63 0.68 0.63 0.54 0.46 0.43 0.38 0.32
0.30 0.36 0.40 0.39 0.36 0.30 0.25 0.31 0.37 0.34 0.32 0.31 0.31 0.33 0.35 0.41 0.45 0.39 0.45 0.55 0.63 0.60 0.52 0.51 0.54 0.53 0.65 0.67 0.58 0.55 0.52 0.49 0.67 0.68 0.63 0.57 0.51 0.44 0.42 0.45 0.43 0.38 0.35
0.19 0.24 0.28 0.31 0.34 0.37 0.45 0.52 0.53 0.49 0.40 0.36 0.34 0.32 0.35 0.36 0.45 0.31 0.36 0.47 0.56 0.64 0.59 0.54 0.71 0.66 0.65 0.54 0.40 0.50 0.57 0.54 0.52 0.52 0.52 0.48 0.40 0.34 0.33 0.34 0.42 0.42 0.37
0.04 0.10 0.18 0.29 0.35 0.44 0.56 0.58 0.56 0.51 0.41 0.36 0.34 0.32 0.32 0.40 0.54 0.44 0.43 0.49 0.55 0.62 0.66 0.66 0.65 0.71 0.52 0.42 0.38 0.45 0.58 0.59 0.55 0.58 0.57 0.50 0.40 0.34 0.31 0.31 0.35 0.37 0.37
0.03 0.07 0.13 0.20 0.29 0.42 0.51 0.50 0.49 0.47 0.44 0.40 0.40 0.37 0.38 0.48 0.54 0.52 0.50 0.52 0.54 0.61 0.63 0.55 0.52 0.55 0.40 0.33 0.29 0.37 0.45 0.44 0.43 0.50 0.54 0.51 0.42 0.36 0.33 0.29 0.28 0.28 0.27
0.01 0.02 0.06 0.11 0.22 0.36 0.39 0.39 0.42 0.44 0.43 0.42 0.40 0.38 0.36 0.41 0.50 0.57 0.49 0.41 0.39 0.45 0.46 0.44 0.39 0.34 0.29 0.25 0.24 0.30 0.31 0.37 0.44 0.50 0.47 0.44 0.43 0.40 0.36 0.32 0.26 0.22 0.20
0.00 0.00 0.01 0.02 0.05 0.10 0.15 0.20 0.26 0.31 0.32 0.32 0.34 0.38 0.41 0.41 0.39 0.42 0.43 0.39 0.33 0.32 0.29 0.21 0.21 0.21 0.24 0.26 0.26 0.26 0.28 0.40 0.51 0.53 0.51 0.47 0.47 0.45 0.42 0.38 0.35 0.32 0.30
0.00 0.00 0.01 0.02 0.03 0.04 0.06 0.09 0.12 0.15 0.19 0.25 0.30 0.33 0.34 0.38 0.37 0.37 0.38 0.38 0.42 0.45 0.44 0.32 0.24 0.22 0.22 0.24 0.26 0.32 0.41 0.48 0.55 0.50 0.48 0.44 0.43 0.45 0.44 0.42 0.39 0.38 0.37
0.00 0.00 0.00 0.01 0.01 0.01 0.02 0.03 0.04 0.06 0.09 0.12 0.15 0.18 0.18 0.24 0.31 0.32 0.33 0.35 0.38 0.42 0.45 0.43 0.41 0.42 0.40 0.36 0.34 0.31 0.35 0.40 0.44 0.49 0.48 0.44 0.39 0.39 0.38 0.36 0.36 0.35 0.35
0.00 0.00 0.00 0.01 0.01 0.02 0.03 0.05 0.04 0.03 0.02 0.03 0.05 0.09 0.11 0.11 0.14 0.20 0.26 0.31 0.32 0.35 0.38 0.40 0.41 0.42 0.39 0.34 0.29 0.27 0.25 0.27 0.32 0.40 0.47 0.49 0.47 0.45 0.42 0.36 0.30 0.28 0.28
0.00 0.00 0.01 0.05 0.07 0.04 0.04 0.08 0.11 0.12 0.09 0.04 0.02 0.04 0.05 0.05 0.04 0.06 0.08 0.14 0.16 0.19 0.24 0.28 0.28 0.28 0.27 0.25 0.21 0.18 0.18 0.19 0.20 0.23 0.29 0.37 0.48 0.56 0.55 0.49 0.44 0.39 0.34
0.00 0.01 0.02 0.06 0.07 0.08 0.11 0.13 0.12 0.12 0.11 0.07 0.04 0.02 0.02 0.02 0.02 0.02 0.03 0.06 0.06 0.07 0.09 0.11 0.12 0.12 0.14 0.14 0.11 0.10 0.12 0.14 0.15 0.16 0.18 0.20 0.27 0.36 0.46 0.51 0.53 0.57 0.53
0.00 0.00 0.01 0.03 0.05 0.06 0.08 0.10 0.08 0.07 0.07 0.05 0.04 0.03 0.03 0.03 0.03 0.02 0.02 0.03 0.03 0.04 0.04 0.04 0.05 0.05 0.07 0.07 0.06 0.05 0.05 0.07 0.09 0.10 0.11 0.13 0.16 0.19 0.25 0.33 0.38 0.41 0.43
0.00 0.00 0.00 0.01 0.03 0.03 0.03 0.03 0.04 0.04 0.03 0.02 0.02 0.01 0.02 0.05 0.05 0.04 0.03 0.03 0.03 0.03 0.03 0.03 0.03 0.04 0.05 0.06 0.10 0.12 0.09 0.06 0.07 0.08 0.09 0.10 0.11 0.13 0.15 0.20 0.24 0.27 0.31
0.00 0.00 0.01 0.02 0.04 0.03 0.02 0.02 0.03 0.04 0.03 0.02 0.02 0.01 0.01 0.04 0.05 0.05 0.04 0.03 0.04 0.03 0.03 0.03 0.03 0.04 0.05 0.06 0.10 0.15 0.17 0.14 0.11 0.09 0.10 0.11 0.12 0.12 0.13 0.15 0.17 0.19 0.20
0.00 0.00 0.01 0.02 0.03 0.01 0.01 0.03 0.03 0.03 0.03 0.02 0.02 0.02 0.03 0.04 0.04 0.03 0.03 0.04 0.05 0.06 0.06 0.05 0.04 0.05 0.06 0.07 0.08 0.09 0.10 0.13 0.15 0.15 0.13 0.13 0.14 0.16 0.17 0.17 0.17 0.19 0.20
0.00 0.00 0.01 0.02 0.02 0.02 0.03 0.03 0.03 0.02 0.02 0.02 0.02 0.03 0.04 0.05 0.04 0.03 0.03 0.04 0.05 0.05 0.06 0.05 0.04 0.04 0.05 0.06 0.07 0.08 0.10 0.10 0.09 0.08 0.09 0.10 0.11 0.12 0.14 0.16 0.18 0.19 0.21
0.00 0.00 0.01 0.01 0.01 0.02 0.02 0.03 0.04 0.02 0.02 0.02 0.02 0.02 0.03 0.04 0.05 0.04 0.03 0.03 0.03 0.03 0.03 0.03 0.03 0.05 0.08 0.09 0.09 0.12 0.18 0.17 0.12 0.09 0.09 0.10 0.11 0.13 0.16 0.19 0.23 0.26 0.28
0.00 0.00 0.01 0.01 0.01 0.01 0.02 0.04 0.04 0.04 0.03 0.02 0.03 0.03 0.04 0.04 0.04 0.03 0.03 0.02 0.02 0.02 0.02 0.03 0.03 0.05 0.08 0.09 0.09 0.11 0.14 0.13 0.13 0.12 0.08 0.08 0.10 0.14 0.19 0.22 0.24 0.28 0.34